QPF
0.00 0.00 0.00 0.00 0.00 0.00 0.00 0.00 0.00 0.01 0.04 0.05 0.05 0.04 0.03 0.02 0.01 0.01 0.02 0.02 0.01 0.00 0.00 0.00 0.00 0.00 0.00 0.00 0.00 0.00 0.00 0.00 0.00 0.00 0.00 0.00 0.00 0.00 0.00 0.00 0.00 0.00 0.00
0.00 0.00 0.00 0.00 0.00 0.00 0.00 0.00 0.00 0.00 0.02 0.02 0.04 0.06 0.09 0.09 0.06 0.05 0.03 0.02 0.02 0.01 0.00 0.00 0.00 0.00 0.00 0.00 0.00 0.00 0.00 0.00 0.00 0.00 0.00 0.00 0.00 0.00 0.00 0.00 0.00 0.00 0.00
0.00 0.00 0.00 0.00 0.00 0.00 0.00 0.00 0.00 0.00 0.01 0.04 0.10 0.15 0.18 0.15 0.11 0.05 0.03 0.03 0.04 0.03 0.02 0.01 0.01 0.01 0.00 0.00 0.00 0.00 0.00 0.00 0.00 0.00 0.00 0.00 0.00 0.00 0.00 0.00 0.00 0.00 0.00
0.00 0.00 0.00 0.00 0.00 0.00 0.00 0.00 0.00 0.00 0.01 0.03 0.06 0.05 0.04 0.03 0.04 0.05 0.05 0.08 0.09 0.06 0.04 0.03 0.02 0.02 0.02 0.01 0.01 0.00 0.00 0.00 0.00 0.00 0.00 0.00 0.00 0.00 0.00 0.00 0.00 0.00 0.00
0.00 0.00 0.00 0.00 0.00 0.00 0.00 0.00 0.00 0.00 0.00 0.01 0.02 0.03 0.03 0.04 0.06 0.07 0.07 0.08 0.09 0.08 0.07 0.05 0.03 0.03 0.03 0.02 0.01 0.01 0.00 0.00 0.00 0.00 0.00 0.00 0.00 0.00 0.00 0.00 0.00 0.00 0.00
0.00 0.00 0.00 0.00 0.00 0.00 0.00 0.00 0.00 0.00 0.00 0.00 0.01 0.01 0.02 0.02 0.03 0.04 0.06 0.07 0.08 0.07 0.07 0.06 0.06 0.04 0.03 0.02 0.01 0.01 0.00 0.00 0.00 0.00 0.00 0.00 0.00 0.00 0.00 0.00 0.00 0.00 0.00
0.00 0.00 0.00 0.00 0.00 0.00 0.00 0.00 0.00 0.00 0.00 0.01 0.01 0.02 0.01 0.01 0.03 0.04 0.06 0.06 0.06 0.06 0.06 0.06 0.06 0.06 0.04 0.02 0.01 0.01 0.00 0.00 0.00 0.00 0.00 0.00 0.00 0.00 0.00 0.00 0.00 0.00 0.00
0.00 0.00 0.00 0.00 0.00 0.00 0.00 0.00 0.00 0.00 0.01 0.01 0.02 0.02 0.02 0.01 0.03 0.04 0.05 0.06 0.07 0.08 0.09 0.09 0.09 0.07 0.05 0.03 0.02 0.01 0.00 0.00 0.00 0.00 0.00 0.00 0.00 0.00 0.00 0.00 0.00 0.00 0.00
0.00 0.00 0.00 0.00 0.00 0.00 0.00 0.00 0.00 0.01 0.02 0.02 0.03 0.03 0.02 0.02 0.03 0.04 0.05 0.05 0.06 0.08 0.09 0.10 0.09 0.08 0.06 0.04 0.03 0.01 0.00 0.00 0.00 0.00 0.00 0.00 0.00 0.00 0.00 0.00 0.00 0.00 0.00
0.00 0.00 0.00 0.00 0.00 0.00 0.00 0.00 0.01 0.01 0.03 0.04 0.04 0.03 0.02 0.02 0.04 0.04 0.04 0.04 0.04 0.06 0.07 0.08 0.09 0.08 0.07 0.05 0.03 0.01 0.01 0.01 0.01 0.00 0.00 0.00 0.00 0.00 0.00 0.00 0.00 0.00 0.00
0.00 0.00 0.00 0.00 0.00 0.00 0.00 0.01 0.01 0.02 0.03 0.04 0.04 0.03 0.03 0.03 0.03 0.03 0.03 0.03 0.04 0.05 0.06 0.08 0.08 0.07 0.06 0.04 0.03 0.02 0.01 0.01 0.01 0.00 0.00 0.00 0.00 0.00 0.00 0.00 0.00 0.00 0.00
0.00 0.00 0.00 0.00 0.00 0.00 0.00 0.01 0.03 0.03 0.04 0.04 0.04 0.03 0.03 0.03 0.03 0.03 0.03 0.03 0.03 0.04 0.04 0.05 0.06 0.05 0.04 0.04 0.04 0.03 0.02 0.01 0.00 0.00 0.00 0.00 0.00 0.00 0.00 0.00 0.00 0.00 0.00
0.01 0.01 0.01 0.00 0.00 0.01 0.01 0.02 0.03 0.04 0.04 0.04 0.04 0.04 0.04 0.03 0.04 0.04 0.04 0.03 0.03 0.03 0.02 0.03 0.03 0.03 0.03 0.04 0.04 0.02 0.01 0.01 0.01 0.01 0.01 0.00 0.00 0.00 0.00 0.00 0.00 0.00 0.00
0.01 0.01 0.01 0.01 0.02 0.02 0.02 0.02 0.03 0.04 0.04 0.06 0.07 0.06 0.04 0.04 0.04 0.04 0.03 0.03 0.02 0.02 0.02 0.01 0.01 0.01 0.02 0.02 0.02 0.02 0.03 0.03 0.03 0.02 0.01 0.00 0.00 0.00 0.00 0.00 0.00 0.00 0.00
0.01 0.02 0.02 0.02 0.03 0.03 0.02 0.02 0.03 0.05 0.07 0.08 0.08 0.07 0.05 0.05 0.04 0.04 0.04 0.03 0.02 0.01 0.01 0.02 0.02 0.03 0.04 0.05 0.06 0.07 0.07 0.05 0.04 0.02 0.01 0.01 0.00 0.00 0.00 0.00 0.00 0.00 0.00
0.01 0.02 0.02 0.02 0.02 0.02 0.02 0.01 0.02 0.04 0.05 0.07 0.07 0.06 0.04 0.04 0.04 0.04 0.03 0.03 0.02 0.02 0.02 0.04 0.06 0.08 0.10 0.13 0.12 0.10 0.08 0.05 0.03 0.02 0.01 0.00 0.00 0.00 0.00 0.00 0.00 0.00 0.00
0.01 0.02 0.02 0.02 0.02 0.02 0.01 0.01 0.01 0.03 0.04 0.05 0.05 0.04 0.03 0.03 0.03 0.03 0.04 0.05 0.06 0.08 0.10 0.13 0.15 0.17 0.18 0.17 0.13 0.09 0.05 0.03 0.02 0.01 0.00 0.00 0.00 0.00 0.00 0.00 0.00 0.00 0.00
0.01 0.01 0.01 0.01 0.01 0.01 0.01 0.01 0.01 0.01 0.02 0.02 0.03 0.03 0.04 0.06 0.07 0.09 0.11 0.14 0.17 0.21 0.24 0.25 0.23 0.20 0.15 0.10 0.05 0.03 0.01 0.01 0.00 0.00 0.00 0.00 0.00 0.00 0.00 0.00 0.00 0.00 0.00
0.01 0.01 0.01 0.01 0.01 0.01 0.01 0.02 0.02 0.03 0.04 0.07 0.08 0.10 0.13 0.17 0.20 0.24 0.27 0.29 0.31 0.31 0.28 0.22 0.15 0.09 0.05 0.02 0.01 0.00 0.00 0.00 0.00 0.00 0.00 0.00 0.00 0.00 0.00 0.00 0.00 0.00 0.00
0.02 0.02 0.02 0.03 0.04 0.04 0.05 0.06 0.08 0.10 0.13 0.17 0.21 0.26 0.30 0.32 0.34 0.35 0.36 0.33 0.28 0.21 0.13 0.07 0.04 0.02 0.01 0.00 0.00 0.00 0.00 0.00 0.00 0.00 0.00 0.00 0.00 0.00 0.00 0.01 0.01 0.01 0.00
0.03 0.03 0.03 0.04 0.06 0.09 0.13 0.17 0.20 0.23 0.27 0.30 0.33 0.38 0.40 0.40 0.38 0.31 0.22 0.14 0.09 0.05 0.03 0.01 0.00 0.00 0.00 0.00 0.00 0.00 0.00 0.00 0.00 0.00 0.00 0.00 0.00 0.00 0.01 0.01 0.01 0.00 0.00
0.07 0.10 0.11 0.12 0.14 0.18 0.22 0.26 0.31 0.32 0.31 0.31 0.31 0.29 0.24 0.18 0.13 0.08 0.05 0.03 0.01 0.01 0.00 0.00 0.00 0.00 0.00 0.00 0.00 0.00 0.00 0.00 0.00 0.00 0.00 0.00 0.00 0.01 0.01 0.00 0.00 0.00 0.00
0.04 0.06 0.09 0.10 0.11 0.12 0.14 0.17 0.17 0.14 0.12 0.11 0.09 0.07 0.04 0.02 0.01 0.01 0.00 0.00 0.00 0.00 0.00 0.00 0.00 0.00 0.00 0.00 0.00 0.00 0.00 0.00 0.00 0.00 0.00 0.00 0.01 0.00 0.00 0.00 0.00 0.00 0.00
0.01 0.02 0.03 0.05 0.05 0.05 0.06 0.08 0.07 0.05 0.02 0.02 0.01 0.01 0.00 0.00 0.00 0.00 0.00 0.00 0.00 0.00 0.00 0.00 0.00 0.00 0.00 0.00 0.00 0.00 0.00 0.00 0.00 0.00 0.00 0.00 0.00 0.00 0.00 0.00 0.00 0.00 0.00
0.00 0.00 0.00 0.00 0.00 0.00 0.01 0.01 0.01 0.00 0.00 0.00 0.00 0.00 0.00 0.00 0.00 0.00 0.00 0.00 0.00 0.00 0.00 0.00 0.00 0.00 0.00 0.00 0.00 0.00 0.00 0.00 0.00 0.00 0.00 0.00 0.00 0.00 0.00 0.00 0.00 0.00 0.00
0.00 0.00 0.00 0.00 0.00 0.00 0.00 0.00 0.00 0.00 0.00 0.00 0.00 0.00 0.00 0.00 0.00 0.00 0.00 0.00 0.00 0.00 0.00 0.00 0.00 0.00 0.00 0.00 0.00 0.00 0.00 0.00 0.00 0.00 0.00 0.00 0.00 0.00 0.00 0.00 0.00 0.00 0.00
MSLP
1009.10 1008.93 1008.78 1008.63 1008.48 1008.35 1008.26 1008.25 1008.34 1008.54 1008.85 1009.24 1009.71 1010.20 1010.69 1011.16 1011.61 1012.04 1012.47 1012.93 1013.44 1014.01 1014.65 1015.36 1016.11 1016.87 1017.61 1018.29 1018.89 1019.39 1019.80 1020.10 1020.34 1020.51 1020.64 1020.74 1020.84 1020.91 1020.99 1021.05 1021.10 1021.13 1021.16
1008.52 1008.42 1008.33 1008.20 1008.05 1007.88 1007.74 1007.67 1007.70 1007.86 1008.16 1008.56 1009.05 1009.57 1010.10 1010.61 1011.07 1011.51 1011.95 1012.40 1012.91 1013.49 1014.15 1014.89 1015.67 1016.46 1017.23 1017.94 1018.57 1019.09 1019.52 1019.86 1020.12 1020.34 1020.52 1020.68 1020.83 1020.95 1021.06 1021.15 1021.20 1021.23 1021.24
1007.97 1007.94 1007.90 1007.81 1007.65 1007.46 1007.26 1007.13 1007.10 1007.22 1007.48 1007.88 1008.38 1008.94 1009.50 1010.05 1010.55 1011.01 1011.46 1011.92 1012.43 1013.00 1013.66 1014.39 1015.17 1015.96 1016.73 1017.45 1018.08 1018.63 1019.08 1019.46 1019.79 1020.08 1020.34 1020.58 1020.80 1021.00 1021.16 1021.28 1021.36 1021.40 1021.40
1007.51 1007.54 1007.54 1007.48 1007.32 1007.10 1006.86 1006.65 1006.56 1006.61 1006.83 1007.21 1007.71 1008.28 1008.88 1009.46 1010.00 1010.50 1010.98 1011.45 1011.97 1012.54 1013.18 1013.89 1014.65 1015.41 1016.16 1016.87 1017.50 1018.06 1018.56 1019.00 1019.39 1019.77 1020.12 1020.46 1020.77 1021.05 1021.28 1021.45 1021.56 1021.61 1021.62
1007.18 1007.25 1007.29 1007.25 1007.08 1006.83 1006.53 1006.26 1006.08 1006.06 1006.22 1006.55 1007.02 1007.60 1008.22 1008.83 1009.42 1009.97 1010.49 1011.00 1011.54 1012.11 1012.75 1013.43 1014.15 1014.89 1015.61 1016.29 1016.92 1017.51 1018.04 1018.54 1019.01 1019.47 1019.92 1020.35 1020.76 1021.11 1021.41 1021.63 1021.77 1021.85 1021.86
1006.98 1007.08 1007.15 1007.11 1006.94 1006.65 1006.29 1005.95 1005.69 1005.58 1005.66 1005.92 1006.35 1006.90 1007.53 1008.17 1008.80 1009.41 1009.99 1010.55 1011.13 1011.73 1012.37 1013.05 1013.75 1014.46 1015.15 1015.82 1016.45 1017.05 1017.62 1018.17 1018.71 1019.25 1019.78 1020.28 1020.75 1021.17 1021.51 1021.77 1021.95 1022.05 1022.07
1006.90 1007.00 1007.07 1007.04 1006.85 1006.54 1006.14 1005.73 1005.39 1005.19 1005.18 1005.36 1005.72 1006.23 1006.84 1007.50 1008.17 1008.83 1009.48 1010.12 1010.76 1011.42 1012.09 1012.78 1013.48 1014.18 1014.86 1015.52 1016.16 1016.77 1017.37 1017.96 1018.55 1019.14 1019.71 1020.26 1020.77 1021.21 1021.57 1021.85 1022.05 1022.16 1022.20
1006.86 1006.96 1007.03 1006.99 1006.80 1006.46 1006.03 1005.57 1005.17 1004.90 1004.79 1004.89 1005.18 1005.63 1006.20 1006.85 1007.55 1008.27 1009.00 1009.72 1010.45 1011.17 1011.91 1012.64 1013.37 1014.08 1014.78 1015.44 1016.09 1016.71 1017.33 1017.94 1018.55 1019.15 1019.74 1020.29 1020.79 1021.22 1021.57 1021.85 1022.04 1022.15 1022.20
1006.83 1006.91 1006.97 1006.92 1006.73 1006.39 1005.95 1005.47 1005.03 1004.70 1004.53 1004.55 1004.75 1005.13 1005.66 1006.30 1007.01 1007.77 1008.57 1009.38 1010.20 1011.02 1011.84 1012.64 1013.42 1014.17 1014.89 1015.57 1016.23 1016.87 1017.49 1018.10 1018.70 1019.29 1019.84 1020.35 1020.81 1021.19 1021.50 1021.74 1021.91 1022.02 1022.07
1006.76 1006.82 1006.86 1006.80 1006.62 1006.30 1005.88 1005.42 1004.98 1004.62 1004.41 1004.36 1004.50 1004.81 1005.28 1005.89 1006.60 1007.40 1008.25 1009.14 1010.05 1010.97 1011.88 1012.76 1013.61 1014.41 1015.17 1015.88 1016.55 1017.19 1017.80 1018.40 1018.97 1019.51 1020.00 1020.45 1020.82 1021.13 1021.37 1021.55 1021.68 1021.76 1021.81
1006.67 1006.69 1006.71 1006.65 1006.48 1006.20 1005.83 1005.41 1005.01 1004.68 1004.46 1004.38 1004.47 1004.73 1005.14 1005.71 1006.40 1007.21 1008.09 1009.04 1010.03 1011.04 1012.03 1012.99 1013.91 1014.76 1015.56 1016.29 1016.97 1017.61 1018.21 1018.77 1019.30 1019.77 1020.19 1020.55 1020.83 1021.05 1021.20 1021.31 1021.38 1021.43 1021.46
1006.62 1006.60 1006.58 1006.51 1006.36 1006.13 1005.83 1005.49 1005.16 1004.88 1004.70 1004.62 1004.69 1004.91 1005.28 1005.80 1006.47 1007.26 1008.16 1009.14 1010.18 1011.24 1012.30 1013.32 1014.29 1015.18 1016.00 1016.75 1017.43 1018.06 1018.64 1019.16 1019.63 1020.04 1020.38 1020.64 1020.83 1020.95 1021.02 1021.04 1021.05 1021.05 1021.05
1006.67 1006.61 1006.55 1006.47 1006.34 1006.15 1005.93 1005.69 1005.46 1005.27 1005.15 1005.11 1005.19 1005.39 1005.72 1006.20 1006.83 1007.59 1008.48 1009.47 1010.52 1011.61 1012.69 1013.74 1014.73 1015.64 1016.46 1017.21 1017.88 1018.49 1019.03 1019.51 1019.93 1020.27 1020.54 1020.72 1020.83 1020.86 1020.84 1020.78 1020.72 1020.66 1020.62
1006.93 1006.82 1006.72 1006.61 1006.49 1006.35 1006.20 1006.06 1005.94 1005.86 1005.82 1005.85 1005.96 1006.16 1006.48 1006.92 1007.51 1008.24 1009.09 1010.05 1011.08 1012.16 1013.23 1014.26 1015.24 1016.13 1016.93 1017.65 1018.29 1018.86 1019.36 1019.80 1020.16 1020.46 1020.66 1020.78 1020.81 1020.77 1020.67 1020.54 1020.40 1020.28 1020.19
1007.44 1007.29 1007.14 1007.00 1006.87 1006.76 1006.68 1006.64 1006.63 1006.65 1006.71 1006.81 1006.97 1007.20 1007.51 1007.94 1008.49 1009.17 1009.98 1010.89 1011.87 1012.89 1013.91 1014.90 1015.81 1016.65 1017.40 1018.06 1018.65 1019.16 1019.62 1020.01 1020.33 1020.57 1020.73 1020.79 1020.77 1020.66 1020.50 1020.30 1020.10 1019.91 1019.74
1008.22 1008.03 1007.83 1007.66 1007.51 1007.42 1007.39 1007.42 1007.50 1007.62 1007.77 1007.96 1008.17 1008.44 1008.77 1009.18 1009.71 1010.34 1011.09 1011.94 1012.85 1013.80 1014.74 1015.63 1016.46 1017.21 1017.87 1018.45 1018.96 1019.41 1019.80 1020.14 1020.41 1020.61 1020.73 1020.75 1020.69 1020.53 1020.31 1020.05 1019.78 1019.52 1019.28
1009.22 1009.00 1008.77 1008.55 1008.38 1008.29 1008.29 1008.37 1008.52 1008.72 1008.95 1009.21 1009.49 1009.80 1010.15 1010.57 1011.07 1011.67 1012.37 1013.14 1013.97 1014.82 1015.66 1016.44 1017.16 1017.80 1018.35 1018.83 1019.24 1019.61 1019.93 1020.20 1020.42 1020.58 1020.66 1020.65 1020.54 1020.35 1020.08 1019.76 1019.43 1019.10 1018.79
1010.34 1010.11 1009.85 1009.60 1009.41 1009.31 1009.32 1009.43 1009.62 1009.89 1010.18 1010.50 1010.83 1011.18 1011.56 1011.99 1012.48 1013.05 1013.70 1014.40 1015.14 1015.89 1016.61 1017.28 1017.87 1018.38 1018.81 1019.17 1019.48 1019.75 1019.99 1020.20 1020.36 1020.47 1020.50 1020.45 1020.31 1020.08 1019.77 1019.41 1019.03 1018.64 1018.27
1011.45 1011.22 1010.95 1010.69 1010.48 1010.38 1010.40 1010.52 1010.75 1011.05 1011.38 1011.74 1012.12 1012.50 1012.91 1013.35 1013.83 1014.38 1014.98 1015.62 1016.27 1016.92 1017.53 1018.07 1018.53 1018.91 1019.22 1019.47 1019.67 1019.84 1019.99 1020.12 1020.22 1020.27 1020.26 1020.18 1020.00 1019.74 1019.40 1019.01 1018.58 1018.15 1017.73
1012.42 1012.22 1011.96 1011.70 1011.51 1011.42 1011.44 1011.58 1011.83 1012.14 1012.51 1012.89 1013.29 1013.70 1014.12 1014.57 1015.05 1015.57 1016.12 1016.70 1017.28 1017.83 1018.33 1018.75 1019.10 1019.36 1019.55 1019.69 1019.79 1019.86 1019.93 1019.99 1020.02 1020.02 1019.97 1019.84 1019.64 1019.35 1018.98 1018.56 1018.11 1017.65 1017.21
1013.17 1013.01 1012.79 1012.58 1012.42 1012.36 1012.41 1012.57 1012.83 1013.15 1013.53 1013.92 1014.33 1014.74 1015.17 1015.62 1016.08 1016.58 1017.09 1017.61 1018.11 1018.57 1018.97 1019.29 1019.53 1019.69 1019.78 1019.82 1019.83 1019.83 1019.82 1019.81 1019.79 1019.74 1019.64 1019.48 1019.25 1018.94 1018.56 1018.13 1017.67 1017.20 1016.74
1013.67 1013.56 1013.41 1013.27 1013.18 1013.18 1013.27 1013.47 1013.74 1014.08 1014.45 1014.84 1015.25 1015.65 1016.07 1016.50 1016.95 1017.41 1017.87 1018.33 1018.76 1019.14 1019.45 1019.68 1019.83 1019.90 1019.91 1019.88 1019.82 1019.75 1019.69 1019.62 1019.55 1019.46 1019.33 1019.14 1018.89 1018.57 1018.19 1017.76 1017.31 1016.84 1016.38
1013.95 1013.92 1013.86 1013.81 1013.82 1013.89 1014.05 1014.29 1014.59 1014.93 1015.30 1015.68 1016.07 1016.46 1016.86 1017.26 1017.67 1018.09 1018.50 1018.89 1019.25 1019.55 1019.79 1019.94 1020.01 1020.02 1019.97 1019.88 1019.77 1019.67 1019.56 1019.46 1019.35 1019.23 1019.07 1018.87 1018.61 1018.29 1017.92 1017.50 1017.06 1016.61 1016.16
1014.08 1014.14 1014.19 1014.26 1014.38 1014.55 1014.79 1015.07 1015.40 1015.75 1016.12 1016.48 1016.84 1017.20 1017.57 1017.93 1018.30 1018.67 1019.02 1019.35 1019.64 1019.87 1020.03 1020.11 1020.13 1020.08 1019.99 1019.87 1019.73 1019.60 1019.48 1019.35 1019.23 1019.09 1018.92 1018.70 1018.44 1018.12 1017.76 1017.36 1016.94 1016.50 1016.06
1014.18 1014.34 1014.51 1014.70 1014.93 1015.20 1015.52 1015.85 1016.21 1016.57 1016.92 1017.26 1017.59 1017.92 1018.24 1018.56 1018.88 1019.19 1019.49 1019.75 1019.97 1020.13 1020.23 1020.26 1020.22 1020.14 1020.02 1019.88 1019.73 1019.59 1019.46 1019.33 1019.19 1019.04 1018.87 1018.65 1018.39 1018.08 1017.73 1017.34 1016.93 1016.50 1016.06
1014.36 1014.62 1014.89 1015.20 1015.53 1015.89 1016.27 1016.65 1017.01 1017.37 1017.71 1018.02 1018.32 1018.61 1018.90 1019.17 1019.44 1019.70 1019.94 1020.14 1020.29 1020.39 1020.43 1020.41 1020.34 1020.23 1020.09 1019.94 1019.79 1019.65 1019.52 1019.39 1019.25 1019.09 1018.91 1018.69 1018.42 1018.11 1017.76 1017.38 1016.97 1016.54 1016.09
Thickness
5680 5683 5686 5689 5691 5693 5694 5694 5695 5696 5694 5690 5686 5682 5681 5681 5679 5677 5673 5669 5664 5659 5654 5648 5642 5639 5634 5629 5624 5618 5612 5607 5604 5600 5595 5593 5591 5589 5586 5584 5581 5579 5577
5673 5676 5679 5682 5684 5687 5689 5689 5691 5692 5692 5691 5689 5686 5682 5679 5678 5674 5671 5667 5662 5656 5650 5645 5639 5634 5628 5622 5617 5613 5605 5601 5597 5593 5588 5584 5582 5580 5578 5574 5572 5569 5567
5668 5671 5672 5675 5678 5680 5683 5686 5686 5687 5688 5687 5684 5679 5673 5669 5667 5667 5666 5664 5659 5653 5647 5641 5636 5630 5625 5619 5613 5608 5602 5595 5589 5587 5584 5577 5575 5570 5568 5565 5562 5559 5555
5662 5665 5666 5668 5671 5674 5677 5679 5680 5681 5682 5681 5678 5674 5670 5667 5667 5666 5662 5658 5653 5648 5644 5638 5633 5627 5621 5615 5609 5603 5598 5592 5584 5579 5576 5573 5569 5562 5559 5555 5551 5548 5545
5653 5656 5658 5661 5663 5665 5667 5669 5671 5673 5674 5673 5673 5671 5670 5667 5662 5658 5653 5649 5645 5641 5638 5633 5628 5622 5616 5610 5604 5598 5593 5588 5581 5575 5569 5564 5558 5553 5548 5544 5539 5536 5534
5645 5647 5649 5651 5652 5653 5654 5656 5658 5661 5663 5663 5665 5665 5663 5658 5651 5647 5643 5638 5634 5631 5628 5626 5622 5616 5610 5604 5599 5593 5587 5581 5575 5569 5564 5558 5551 5544 5538 5532 5526 5521 5520
5632 5633 5635 5636 5638 5640 5640 5642 5644 5646 5648 5650 5653 5655 5655 5652 5648 5643 5637 5631 5625 5622 5621 5618 5613 5608 5603 5597 5591 5585 5578 5573 5567 5560 5554 5549 5544 5537 5530 5523 5516 5510 5508
5615 5616 5618 5619 5620 5623 5624 5625 5627 5630 5633 5636 5640 5642 5643 5642 5639 5636 5632 5627 5624 5619 5614 5609 5604 5599 5593 5588 5582 5576 5569 5562 5556 5550 5544 5538 5533 5527 5521 5513 5505 5498 5494
5599 5599 5600 5601 5602 5604 5606 5607 5610 5614 5617 5621 5625 5627 5629 5629 5626 5623 5620 5616 5612 5607 5602 5598 5593 5587 5582 5577 5572 5565 5558 5552 5545 5538 5532 5526 5521 5515 5509 5502 5495 5487 5481
5584 5583 5582 5582 5583 5584 5586 5588 5592 5596 5601 5605 5609 5612 5614 5614 5612 5609 5606 5603 5600 5596 5591 5586 5581 5575 5570 5565 5560 5553 5547 5540 5533 5526 5520 5514 5508 5502 5495 5489 5482 5475 5469
5570 5568 5565 5563 5562 5562 5564 5567 5572 5577 5583 5588 5591 5594 5596 5596 5596 5595 5593 5591 5588 5585 5580 5575 5570 5564 5558 5552 5546 5540 5534 5527 5521 5515 5508 5502 5496 5489 5482 5476 5469 5462 5455
5559 5554 5548 5544 5541 5541 5544 5548 5553 5559 5565 5571 5574 5576 5578 5579 5579 5579 5579 5578 5576 5572 5569 5564 5558 5552 5545 5539 5532 5526 5520 5514 5508 5501 5495 5489 5484 5477 5470 5463 5457 5450 5444
5546 5540 5533 5527 5523 5523 5526 5530 5535 5541 5547 5553 5556 5558 5561 5563 5564 5565 5566 5565 5563 5560 5556 5552 5546 5539 5532 5525 5518 5513 5507 5501 5494 5488 5482 5476 5470 5463 5456 5450 5444 5437 5432
5534 5528 5522 5515 5510 5508 5510 5513 5517 5523 5529 5534 5538 5542 5545 5548 5550 5552 5552 5552 5550 5547 5543 5538 5532 5526 5519 5512 5505 5500 5493 5486 5480 5474 5468 5462 5456 5450 5444 5437 5431 5424 5417
5523 5517 5512 5506 5500 5497 5497 5499 5503 5508 5513 5517 5521 5525 5529 5533 5536 5537 5538 5538 5537 5533 5529 5524 5518 5512 5505 5498 5493 5486 5480 5473 5466 5460 5454 5449 5444 5439 5432 5426 5418 5411 5403
5512 5507 5503 5497 5492 5489 5489 5490 5492 5495 5498 5501 5505 5510 5515 5518 5521 5522 5524 5523 5521 5517 5514 5509 5503 5497 5492 5486 5480 5474 5467 5460 5453 5447 5441 5436 5430 5425 5419 5413 5407 5399 5391
5504 5499 5493 5489 5485 5484 5484 5483 5484 5486 5487 5490 5493 5498 5502 5505 5507 5509 5509 5507 5504 5501 5497 5492 5487 5481 5478 5474 5469 5463 5455 5448 5440 5433 5427 5422 5415 5408 5401 5396 5391 5383 5375
5498 5494 5489 5485 5481 5480 5480 5480 5480 5480 5481 5482 5485 5488 5491 5494 5494 5495 5494 5492 5490 5486 5481 5477 5474 5469 5466 5463 5458 5451 5442 5434 5427 5419 5412 5405 5398 5392 5387 5383 5376 5368 5358
5493 5489 5486 5482 5479 5478 5477 5477 5475 5475 5475 5475 5477 5479 5481 5482 5483 5482 5481 5479 5476 5473 5469 5465 5462 5458 5455 5451 5446 5438 5429 5421 5413 5406 5399 5392 5385 5379 5375 5370 5362 5354 5344
5491 5487 5483 5480 5477 5475 5475 5474 5471 5470 5470 5470 5471 5472 5474 5475 5474 5473 5471 5468 5466 5462 5459 5456 5452 5448 5443 5439 5433 5427 5417 5408 5401 5392 5384 5377 5372 5366 5360 5352 5345 5338 5331
5489 5485 5482 5478 5475 5473 5472 5470 5468 5466 5466 5467 5468 5468 5468 5468 5467 5464 5462 5459 5456 5453 5449 5444 5440 5435 5430 5425 5421 5415 5405 5397 5388 5379 5371 5363 5357 5351 5343 5336 5327 5320 5315
5487 5483 5480 5477 5474 5472 5471 5467 5464 5463 5464 5464 5464 5463 5462 5461 5459 5456 5452 5449 5446 5442 5437 5432 5426 5420 5415 5411 5406 5400 5392 5384 5374 5366 5356 5348 5342 5334 5326 5316 5308 5302 5294
5486 5482 5479 5475 5472 5471 5470 5467 5463 5463 5462 5461 5459 5457 5455 5452 5450 5447 5443 5438 5434 5429 5424 5418 5412 5406 5401 5396 5391 5384 5377 5368 5359 5350 5341 5333 5324 5315 5303 5294 5288 5282 5273
5485 5482 5478 5474 5471 5469 5467 5465 5463 5461 5459 5456 5452 5450 5447 5443 5440 5437 5434 5429 5423 5418 5412 5407 5400 5394 5389 5383 5376 5369 5360 5352 5342 5332 5322 5313 5302 5292 5284 5276 5270 5265 5262
5483 5480 5476 5472 5469 5466 5463 5461 5459 5457 5453 5449 5445 5441 5438 5434 5430 5426 5422 5418 5413 5409 5404 5398 5392 5385 5377 5371 5366 5356 5346 5336 5326 5316 5302 5290 5280 5271 5266 5263 5261 5259 5257
5480 5476 5472 5469 5465 5461 5458 5455 5453 5451 5447 5441 5436 5432 5428 5424 5420 5416 5412 5411 5407 5404 5398 5391 5384 5376 5369 5362 5351 5340 5330 5319 5308 5294 5280 5270 5263 5258 5256 5255 5256 5255 5254